• Em Portugal
  • Lista de países
  • Para 7 dias
  • Temperatura da água
  • Mapas de satélite
  • Mapa do tempo
  • Widgets de tempo
  • user-avatar
    Iniciar Sessão

    Previsão horária em Sololá

    Hoje, 21 Outubro, Sábado

    Tempo Temperatura Precipitação Vento Pressão Humidade
    00:00 +13°C° 0 mm 1 m/s 594 mmHg 89%
    01:00 +13°C° 0 mm 1 m/s 593 mmHg 87%
    02:00 +13°C° 0 mm 1 m/s 593 mmHg 86%
    03:00 +13°C° 0 mm 1 m/s 593 mmHg 85%
    04:00 +13°C° 0 mm 1 m/s 593 mmHg 85%
    05:00 +13°C° 0 mm 1 m/s 593 mmHg 84%
    06:00 +13°C° 0 mm 1 m/s 593 mmHg 84%
    07:00 +15°C° 0 mm 1 m/s 594 mmHg 78%
    08:00 +18°C° 0 mm 1 m/s 596 mmHg 73%
    09:00 +20°C° 0 mm 1 m/s 597 mmHg 67%
    10:00 +21°C° 0 mm 1 m/s 597 mmHg 64%
    11:00 +21°C° 0 mm 2 m/s 597 mmHg 61%
    12:00 +23°C° 0 mm 2 m/s 597 mmHg 58%
    13:00 +21°C° 0,7 mm 2 m/s 596 mmHg 64%
    14:00 +21°C° 0,7 mm 2 m/s 596 mmHg 69%
    15:00 +20°C° 0,7 mm 2 m/s 595 mmHg 75%
    16:00 +19°C° 1,1 mm 1 m/s 594 mmHg 81%
    17:00 +18°C° 1,1 mm 1 m/s 594 mmHg 87%
    18:00 +15°C° 1,1 mm 1 m/s 593 mmHg 93%
    19:00 +15°C° 1 mm 1 m/s 594 mmHg 93%
    20:00 +14°C° 1 mm 1 m/s 594 mmHg 93%
    21:00 +14°C° 1 mm 1 m/s 594 mmHg 93%
    22:00 +14°C° 0,4 mm 1 m/s 594 mmHg 93%
    23:00 +14°C° 0,4 mm 1 m/s 594 mmHg 92%

    Amanhã, 22 Outubro, Domingo

    Tempo Temperatura Precipitação Vento Pressão Humidade
    00:00 +14°C° 0,4 mm 1 m/s 594 mmHg 92%
    01:00 +13°C° 0,1 mm 1 m/s 594 mmHg 91%
    02:00 +13°C° 0,1 mm 1 m/s 594 mmHg 90%
    03:00 +13°C° 0,1 mm 1 m/s 593 mmHg 89%
    04:00 +13°C° 0,1 mm 1 m/s 593 mmHg 88%
    05:00 +13°C° 0,1 mm 1 m/s 593 mmHg 87%
    06:00 +13°C° 0,1 mm 1 m/s 593 mmHg 87%
    07:00 +15°C° 0 mm 1 m/s 594 mmHg 81%
    08:00 +18°C° 0 mm 1 m/s 596 mmHg 76%
    09:00 +20°C° 0 mm 1 m/s 597 mmHg 71%
    10:00 +20°C° 0,2 mm 1 m/s 597 mmHg 70%
    11:00 +21°C° 0,2 mm 1 m/s 597 mmHg 69%
    12:00 +21°C° 0,2 mm 2 m/s 597 mmHg 69%
    13:00 +20°C° 1,1 mm 2 m/s 596 mmHg 74%
    14:00 +19°C° 1,1 mm 2 m/s 595 mmHg 79%
    15:00 +20°C° 1,1 mm 1 m/s 595 mmHg 84%
    16:00 +18°C° 1,9 mm 1 m/s 594 mmHg 87%
    17:00 +16°C° 1,9 mm 1 m/s 594 mmHg 90%
    18:00 +15°C° 1,9 mm 1 m/s 594 mmHg 93%
    19:00 +15°C° 0,9 mm 1 m/s 594 mmHg 93%
    20:00 +15°C° 0,9 mm 1 m/s 595 mmHg 93%
    21:00 +15°C° 0,9 mm 1 m/s 595 mmHg 93%
    22:00 +14°C° 0,5 mm 1 m/s 595 mmHg 92%
    23:00 +14°C° 0,5 mm 1 m/s 595 mmHg 92%

    Depois de amanhã, 23 Outubro, Segunda-feira

    Tempo Temperatura Precipitação Vento Pressão Humidade
    00:00 +14°C° 0,5 mm 1 m/s 594 mmHg 91%
    01:00 +14°C° 0,3 mm 1 m/s 594 mmHg 89%
    02:00 +14°C° 0,3 mm 1 m/s 594 mmHg 88%
    03:00 +13°C° 0,3 mm 1 m/s 593 mmHg 86%
    04:00 +13°C° 0,2 mm 1 m/s 593 mmHg 85%
    05:00 +13°C° 0,2 mm 1 m/s 593 mmHg 85%
    06:00 +13°C° 0,2 mm 1 m/s 594 mmHg 84%
    07:00 +14°C° 0,2 mm 1 m/s 594 mmHg 84%
    08:00 +15°C° 0,2 mm 1 m/s 595 mmHg 84%
    09:00 +15°C° 0,2 mm 1 m/s 596 mmHg 83%
    10:00 +16°C° 0,3 mm 1 m/s 596 mmHg 83%
    11:00 +16°C° 0,3 mm 1 m/s 596 mmHg 82%
    12:00 +16°C° 0,3 mm 0 m/s 595 mmHg 82%
    13:00 +18°C° 0,4 mm 1 m/s 595 mmHg 82%
    14:00 +18°C° 0,4 mm 1 m/s 594 mmHg 82%
    15:00 +16°C° 0,4 mm 1 m/s 594 mmHg 82%
    16:00 +16°C° 0,4 mm 1 m/s 594 mmHg 84%
    17:00 +15°C° 0,4 mm 1 m/s 594 mmHg 86%
    18:00 +14°C° 0,4 mm 1 m/s 593 mmHg 88%
    19:00 +14°C° 0,2 mm 1 m/s 594 mmHg 87%
    20:00 +14°C° 0,2 mm 1 m/s 594 mmHg 87%
    21:00 +14°C° 0,2 mm 1 m/s 595 mmHg 86%
    22:00 +14°C° 0,2 mm 1 m/s 595 mmHg 86%
    23:00 +14°C° 0,2 mm 1 m/s 595 mmHg 86%

    24 Outubro, Terça-feira

    Tempo Temperatura Precipitação Vento Pressão Humidade
    00:00 +14°C° 0,2 mm 1 m/s 594 mmHg 87%
    01:00 +14°C° 0,4 mm 1 m/s 594 mmHg 87%
    02:00 +14°C° 0,4 mm 1 m/s 594 mmHg 87%
    03:00 +14°C° 0,4 mm 1 m/s 593 mmHg 88%
    04:00 +14°C° 0,7 mm 1 m/s 593 mmHg 88%
    05:00 +14°C° 0,7 mm 1 m/s 594 mmHg 88%
    06:00 +14°C° 0,7 mm 1 m/s 594 mmHg 89%
    07:00 +14°C° 0,8 mm 1 m/s 594 mmHg 88%
    08:00 +15°C° 0,8 mm 1 m/s 595 mmHg 88%
    09:00 +15°C° 0,8 mm 1 m/s 596 mmHg 88%
    10:00 +15°C° 1,6 mm 1 m/s 596 mmHg 87%
    11:00 +15°C° 1,6 mm 1 m/s 595 mmHg 87%
    12:00 +16°C° 1,6 mm 1 m/s 595 mmHg 86%
    13:00 +15°C° 1,4 mm 1 m/s 595 mmHg 87%
    14:00 +15°C° 1,4 mm 1 m/s 594 mmHg 87%
    15:00 +15°C° 1,4 mm 1 m/s 593 mmHg 87%
    16:00 +14°C° 1,1 mm 1 m/s 593 mmHg 88%
    17:00 +14°C° 1,1 mm 1 m/s 593 mmHg 89%
    18:00 +13°C° 1,1 mm 2 m/s 593 mmHg 89%
    19:00 +13°C° 1 mm 2 m/s 594 mmHg 89%
    20:00 +13°C° 1 mm 2 m/s 594 mmHg 88%
    21:00 +13°C° 1 mm 2 m/s 595 mmHg 87%
    22:00 +13°C° 0,9 mm 2 m/s 595 mmHg 87%
    23:00 +13°C° 0,9 mm 2 m/s 594 mmHg 86%

    25 Outubro, Quarta-feira

    Tempo Temperatura Precipitação Vento Pressão Humidade
    00:00 +13°C° 0,9 mm 2 m/s 594 mmHg 85%
    01:00 +13°C° 1,1 mm 2 m/s 594 mmHg 85%
    02:00 +13°C° 1,1 mm 2 m/s 593 mmHg 85%
    03:00 +13°C° 1,1 mm 2 m/s 593 mmHg 85%
    04:00 +13°C° 1,1 mm 2 m/s 593 mmHg 85%
    05:00 +12°C° 1,1 mm 2 m/s 594 mmHg 85%
    06:00 +12°C° 1,1 mm 2 m/s 594 mmHg 86%
    07:00 +13°C° 0,9 mm 2 m/s 594 mmHg 85%
    08:00 +13°C° 0,9 mm 2 m/s 595 mmHg 85%
    09:00 +14°C° 0,9 mm 2 m/s 596 mmHg 85%
    10:00 +14°C° 0,5 mm 2 m/s 596 mmHg 83%
    11:00 +15°C° 0,5 mm 2 m/s 596 mmHg 80%
    12:00 +16°C° 0,5 mm 2 m/s 596 mmHg 78%
    13:00 +16°C° 0,2 mm 2 m/s 595 mmHg 78%
    14:00 +16°C° 0,2 mm 2 m/s 595 mmHg 78%
    15:00 +16°C° 0,2 mm 2 m/s 594 mmHg 78%
    16:00 +15°C° 0,2 mm 2 m/s 594 mmHg 81%
    17:00 +14°C° 0,2 mm 2 m/s 594 mmHg 84%
    18:00 +12°C° 0,2 mm 1 m/s 594 mmHg 87%
    19:00 +12°C° 0 mm 1 m/s 594 mmHg 85%
    20:00 +12°C° 0 mm 2 m/s 594 mmHg 83%
    21:00 +12°C° 0 mm 2 m/s 595 mmHg 81%
    22:00 +12°C° 0 mm 2 m/s 594 mmHg 80%
    23:00 +10°C° 0 mm 2 m/s 594 mmHg 79%

    26 Outubro, Quinta-feira

    Tempo Temperatura Precipitação Vento Pressão Humidade
    00:00 +10°C° 0 mm 2 m/s 594 mmHg 79%
    01:00 +10°C° 0 mm 2 m/s 593 mmHg 78%
    02:00 +10°C° 0 mm 2 m/s 593 mmHg 78%
    03:00 +10°C° 0 mm 2 m/s 593 mmHg 78%
    04:00 +11°C° 0,1 mm 1 m/s 593 mmHg 78%
    05:00 +11°C° 0,1 mm 1 m/s 593 mmHg 78%
    06:00 +11°C° 0,1 mm 1 m/s 593 mmHg 79%
    07:00 +13°C° 0,1 mm 1 m/s 594 mmHg 77%
    08:00 +14°C° 0,1 mm 1 m/s 595 mmHg 76%
    09:00 +15°C° 0,1 mm 1 m/s 596 mmHg 75%
    10:00 +16°C° 0 mm 1 m/s 596 mmHg 70%
    11:00 +19°C° 0 mm 1 m/s 596 mmHg 66%
    12:00 +21°C° 0 mm 1 m/s 597 mmHg 61%
    13:00 +20°C° 0,1 mm 1 m/s 596 mmHg 66%
    14:00 +19°C° 0,1 mm 2 m/s 595 mmHg 71%
    15:00 +18°C° 0,1 mm 2 m/s 595 mmHg 76%
    16:00 +16°C° 0,3 mm 1 m/s 594 mmHg 81%
    17:00 +15°C° 0,3 mm 1 m/s 594 mmHg 87%
    18:00 +14°C° 0,3 mm 1 m/s 594 mmHg 92%
    19:00 +13°C° 0,2 mm 1 m/s 594 mmHg 91%
    20:00 +13°C° 0,2 mm 1 m/s 594 mmHg 90%
    21:00 +12°C° 0,2 mm 1 m/s 594 mmHg 90%
    22:00 +12°C° 0,1 mm 1 m/s 594 mmHg 87%
    23:00 +12°C° 0,1 mm 1 m/s 593 mmHg 85%
    Mostrar mais